[[{"header":{"parameterUnit":"m.s-1","parameterCategory":1,"la1":30.2991,"la2":30.254,"lo1":-89.0895,"lo2":-89.0444,"dy":0.0017,"dx":0.0017,"nx":28,"ny":28,"refTime":"2025-04-24T09:00:00:Z","depth":0,"parameterNumber":2,"parameterNumberName":"U-component_of_WINDS"},"data":[0,0,0,0,0,0,0,0,0,0,0,0,0,0,0,0,0,0,0,0,0,0,0,0,0,0,0,0,0,0,0,0,0,0,0,0,0,0,0,0,0,0,0,0,0,0,0,0,0,0,0,0,0,0,0,0,0,0,-3.1366,-3.1367,0,-3.1472,-3.1473,-3.1474,-3.1464,-3.1463,-3.1461,-3.146,-3.1568,-3.1573,-3.1577,0,0,0,0,0,0,0,0,0,0,0,0,0,-3.1156,-3.116,-3.1366,-3.1367,-3.1369,-3.1472,-3.1473,-3.1475,-3.1465,-3.1463,-3.1461,-3.1459,-3.1567,-3.1572,-3.1577,0,0,0,0,0,0,0,0,0,0,0,0,0,-3.1253,-3.1161,-3.1366,-3.1376,-3.1378,-3.1471,-3.1473,-3.1475,-3.1465,-3.1463,-3.146,-3.1458,-3.1565,-3.1572,-3.1578,-3.1668,0,0,-3.1598,-3.1601,0,0,0,0,0,0,0,0,-3.1248,-3.1261,-3.1373,-3.1376,-3.1378,-3.1452,-3.1439,-3.154,-3.1466,-3.1432,-3.146,-3.1457,-3.1532,-3.1541,-3.1566,-3.1673,-3.1678,-3.1599,-3.1603,-3.1606,-3.1608,0,0,0,0,0,0,0,-3.1241,-3.1256,-3.1408,-3.1375,-3.1378,-3.1376,-3.1387,-3.1458,-3.1494,-3.1435,-3.1434,-3.1447,-3.1533,-3.156,-3.1569,-3.1679,-3.1599,-3.1605,-3.1609,-3.1611,-3.1866,-3.1868,0,0,0,0,0,0,-3.1232,-3.1251,-3.1405,-3.1411,-3.1305,-3.1382,-3.1394,-3.1431,-3.1494,-3.1501,-3.1449,-3.1446,-3.155,-3.1561,-3.1572,-3.1682,-3.1606,-3.1612,-3.1616,-3.1863,-3.1866,-3.1869,0,0,0,0,0,0,-3.1227,-3.1245,-3.14,-3.1331,-3.135,-3.1388,-3.143,-3.1434,-3.1462,-3.1504,-3.1511,-3.147,-3.1548,-3.1563,-3.1644,-3.1685,-3.1615,-3.1621,-3.1859,-3.1864,-3.1868,-3.19,0,0,0,0,0,0,-3.1221,-3.1244,-3.1278,-3.1332,-3.1354,-3.147,-3.1432,-3.1438,-3.1473,-3.147,-3.1526,-3.1533,-3.1547,-3.1635,-3.1651,-3.1693,-3.1626,-3.1856,-3.1861,-3.1866,-3.1896,-3.1905,-3.1913,0,0,0,0,0,-3.1214,-3.1283,-3.128,-3.1299,-3.1398,-3.1473,-3.1485,-3.1501,-3.1476,-3.1511,-3.1539,-3.1531,-3.1678,-3.1643,-3.1661,-3.1706,-3.1853,-3.186,-3.1866,-3.1892,-3.1903,-3.1913,0,0,0,0,0,0,-3.1234,-3.129,-3.1287,-3.1376,-3.142,-3.1471,-3.1515,-3.1513,-3.1564,-3.1559,-3.1576,-3.1589,-3.1671,-3.1697,-3.1656,-3.1796,-3.1763,-3.1773,-3.1776,-3.1787,-3.1796,-3.1787,-3.1632,0,0,0,0,0,-3.1248,-3.1304,-3.1351,-3.1425,-3.1447,-3.1477,-3.1511,-3.1519,-3.1564,-3.1583,-3.1616,-3.1661,-3.1717,-3.1754,-3.1808,-3.19,-3.1912,-3.194,-3.1949,-3.1956,-3.1964,-3.2014,-3.2027,-3.189,-3.189,-3.189,0,0,-3.1279,-3.1317,-3.1351,-3.143,-3.1464,-3.1522,-3.1493,-3.1555,-3.1598,-3.1592,-3.167,-3.1697,-3.1748,-3.1835,-3.1875,-3.1859,-3.2005,-3.1964,-3.1969,-3.1973,-3.2022,-3.2035,-3.2046,-3.1894,-3.1893,-3.1893,0,0,-3.1365,-3.1399,-3.1464,-3.15,-3.1553,-3.1573,-3.1588,-3.164,-3.1657,-3.1737,-3.1734,-3.1785,-3.1882,-3.1919,-3.195,-3.205,-3.2045,-3.2068,-3.2112,-3.2161,-3.2172,-3.2182,-3.2217,-3.2229,-3.2076,-3.2076,-3.2076,0,-3.1396,-3.1482,-3.1498,-3.1561,-3.1596,-3.1594,-3.166,-3.1694,-3.1762,-3.1786,-3.1767,-3.1889,-3.1923,-3.2018,-3.2043,-3.2069,-3.2087,-3.2061,-3.2169,-3.2179,-3.2188,-3.2222,-3.2235,-3.2078,-3.2078,-3.2078,-3.2078,0,-3.1519,-3.1579,-3.1625,-3.169,-3.173,-3.1795,-3.182,-3.1859,-3.1865,-3.1887,-3.1967,-3.2009,-3.2071,-3.2095,-3.2101,-3.2191,-3.218,-3.2165,-3.2131,-3.2204,-3.2235,-3.2249,-3.2082,-3.2081,-3.208,-3.208,0,0,-3.1618,-3.1692,-3.1709,-3.1738,-3.1797,-3.1844,-3.1908,-3.1969,-3.2002,-3.205,-3.2104,-3.2186,-3.2173,-3.2209,-3.2219,-3.2262,-3.2338,-3.2242,-3.2244,-3.2258,-3.244,-3.245,-3.2465,-3.2336,-3.2338,-3.234,-3.2436,0,-3.1709,-3.1822,-3.1838,-3.1939,-3.1994,-3.1994,-3.205,-3.2092,-3.2115,-3.2166,-3.2191,-3.2249,-3.2228,-3.2249,-3.2292,-3.232,-3.2375,-3.2314,-3.2386,-3.2388,-3.2372,-3.2481,-3.2492,-3.2579,-3.2448,-3.2451,-3.2452,0,-3.1829,-3.1879,-3.1985,-3.2036,-3.206,-3.211,-3.2167,-3.2216,-3.2264,-3.2278,-3.2318,-3.2323,-3.239,-3.2355,-3.2447,-3.2405,-3.2436,-3.2454,-3.2458,-3.2464,-3.2424,-3.249,-3.2608,-3.2621,-3.2472,-3.247,-3.2469,0,-3.189,-3.1984,-3.2059,-3.2085,-3.2147,-3.2182,-3.2209,-3.2255,-3.2291,-3.2342,-3.2365,-3.2423,-3.2455,-3.25,-3.252,-3.2493,-3.2612,-3.2578,-3.2624,-3.2624,-3.2648,-3.2646,-3.2772,-3.267,-3.267,-3.267,-3.2669,0,-3.1988,-3.2053,-3.2088,-3.2134,-3.2206,-3.2225,-3.2296,-3.2323,-3.2364,-3.2415,-3.2419,-3.2467,-3.2492,-3.2545,-3.2562,-3.2635,-3.265,-3.2663,-3.2666,-3.2662,-3.266,-3.2681,-3.2675,-3.2673,-3.2672,-3.2672,-3.2671,0,-3.2068,-3.2094,-3.2176,-3.2228,-3.2242,-3.2293,-3.2338,-3.2383,-3.2406,-3.2471,-3.2487,-3.2523,-3.2585,-3.2611,-3.2687,-3.2698,-3.2783,-3.2782,-3.2766,-3.2767,-3.2812,-3.2807,-3.2955,-3.2975,-3.2861,-3.2862,-3.2863,0,-3.2128,-3.2178,-3.2235,-3.227,-3.2298,-3.2354,-3.2391,-3.2412,-3.245,-3.2509,-3.2547,-3.2609,-3.2659,-3.2758,-3.2791,-3.2849,-3.2849,-3.2897,-3.2858,-3.2852,-3.2849,-3.2845,-3.285,-3.2904,-3.2905,-3.2906,-3.2907,0,-3.2233,-3.2244,-3.2296,-3.2353,-3.2397,-3.2443,-3.2488,-3.2516,-3.2544,-3.2587,-3.265,-3.2689,-3.2767,-3.2828,-3.2888,-3.2917,-3.2917,-3.2919,-3.2933,-3.2928,-3.2916,-3.2922,-3.2784,-3.2915,-3.2914,-3.2914,-3.2913,-3.2913,-3.2305,-3.2348,-3.2395,-3.2454,-3.249,-3.2532,-3.2577,-3.2605,-3.2658,-3.2723,-3.2732,-3.28,-3.2847,-3.2928,-3.2959,-3.3012,-3.3,-3.302,-3.3025,-3.303,-3.3032,-3.2909,-3.3024,-3.3024,-3.3023,-3.3023,-3.3023,0,-3.2409,-3.2439,-3.2492,-3.2555,-3.2601,-3.2597,-3.2647,-3.2686,-3.2745,-3.2789,-3.2839,-3.2911,-3.2971,-3.3009,-3.3069,-3.3105,-3.3106,-3.312,-3.3117,-3.3123,-3.304,-3.3021,-3.3118,-3.3118,-3.3118,-3.3117,-3.3117,-3.3117,-3.2468,-3.2542,-3.2558,-3.265,-3.268,-3.2746,-3.2775,-3.2814,-3.2849,-3.293,-3.2979,-3.3004,-3.3046,-3.3109,-3.3164,-3.3173,-3.3195,-3.3209,-3.3218,-3.3139,-3.3129,-3.312,-3.3103,-3.3214,-3.3214,-3.3297,-3.3298,-3.3298]},{"header":{"parameterUnit":"m.s-1","parameterCategory":1,"la1":30.2991,"la2":30.254,"lo1":-89.0895,"lo2":-89.0444,"dy":0.0017,"dx":0.0017,"nx":28,"ny":28,"refTime":"2025-04-24T09:00:00:Z","depth":0,"parameterNumber":3,"parameterNumberName":"V-component_of_WINDS"},"data":[0,0,0,0,0,0,0,0,0,0,0,0,0,0,0,0,0,0,0,0,0,0,0,0,0,0,0,0,0,0,0,0,0,0,0,0,0,0,0,0,0,0,0,0,0,0,0,0,0,0,0,0,0,0,0,0,0,0,3.6726,3.6727,0,3.6754,3.6754,3.6754,3.6707,3.6705,3.6704,3.6702,3.6727,3.6729,3.6731,0,0,0,0,0,0,0,0,0,0,0,0,0,3.663,3.6632,3.6726,3.6727,3.6727,3.6754,3.6754,3.6754,3.6707,3.6705,3.6703,3.6701,3.6726,3.6729,3.6731,0,0,0,0,0,0,0,0,0,0,0,0,0,3.6666,3.6633,3.6726,3.6707,3.6705,3.6754,3.6754,3.6754,3.6707,3.6705,3.6703,3.67,3.6726,3.6729,3.6732,3.68,0,0,3.6742,3.6743,0,0,0,0,0,0,0,0,3.6664,3.667,3.6709,3.6708,3.6706,3.6724,3.6729,3.677,3.6708,3.6706,3.6702,3.6699,3.6728,3.6731,3.6741,3.6801,3.6802,3.6742,3.6744,3.6745,3.6746,0,0,0,0,0,0,0,3.6662,3.6668,3.6737,3.671,3.6708,3.6695,3.6698,3.6737,3.673,3.6706,3.6703,3.6707,3.6727,3.6738,3.6741,3.6802,3.6742,3.6745,3.6747,3.6748,3.6919,3.6922,0,0,0,0,0,0,3.6662,3.6666,3.6736,3.6738,3.6679,3.6699,3.6702,3.6721,3.673,3.6729,3.6709,3.6705,3.6734,3.6738,3.6742,3.6822,3.6745,3.6748,3.675,3.6917,3.692,3.6923,0,0,0,0,0,0,3.666,3.6669,3.6735,3.6701,3.6709,3.6703,3.6725,3.6723,3.6734,3.6732,3.673,3.6722,3.6732,3.6737,3.6786,3.6822,3.675,3.6753,3.6914,3.6918,3.6921,3.6983,0,0,0,0,0,0,3.6658,3.6668,3.6695,3.6702,3.6711,3.678,3.6727,3.6725,3.674,3.6735,3.6744,3.6743,3.6731,3.6781,3.6789,3.6825,3.6755,3.691,3.6915,3.692,3.6978,3.6989,3.6998,0,0,0,0,0,3.6654,3.671,3.6696,3.6705,3.6744,3.6782,3.6786,3.6772,3.6743,3.6769,3.6768,3.6742,3.6817,3.6787,3.6795,3.6833,3.6908,3.6914,3.692,3.6973,3.6986,3.6998,0,0,0,0,0,0,3.6705,3.6711,3.6695,3.6755,3.6769,3.6774,3.6806,3.6787,3.6807,3.6801,3.6782,3.6784,3.6837,3.684,3.6806,3.6899,3.6858,3.6866,3.6895,3.6908,3.6918,3.6916,3.6758,0,0,0,0,0,3.6724,3.6756,3.6758,3.6811,3.6818,3.6811,3.6827,3.6815,3.6828,3.6833,3.6835,3.6847,3.6873,3.6891,3.6915,3.6978,3.6979,3.7008,3.7018,3.7027,3.7033,3.7067,3.708,3.6942,3.6942,3.6942,0,0,3.6762,3.6769,3.679,3.6821,3.683,3.6862,3.6816,3.6852,3.6875,3.6838,3.6884,3.6886,3.6898,3.6955,3.698,3.6959,3.7072,3.7034,3.7041,3.7043,3.7075,3.7088,3.7099,3.6946,3.6945,3.6945,0,0,3.6848,3.6857,3.6902,3.6912,3.6926,3.6921,3.6932,3.6941,3.6941,3.6987,3.696,3.6987,3.7033,3.7043,3.7054,3.7145,3.7122,3.7153,3.7206,3.7239,3.725,3.7259,3.7291,3.7303,3.716,3.716,3.716,0,3.6893,3.6942,3.6927,3.6965,3.698,3.6949,3.6994,3.7004,3.7025,3.7036,3.7012,3.7069,3.7075,3.7134,3.7156,3.7166,3.7178,3.7152,3.7249,3.7259,3.7268,3.7298,3.731,3.7164,3.7163,3.7163,3.7163,0,3.6997,3.7031,3.7065,3.7088,3.7106,3.7148,3.7139,3.7159,3.7146,3.7143,3.7191,3.7197,3.7222,3.7235,3.7222,3.7292,3.7279,3.7253,3.721,3.7285,3.7313,3.7325,3.7169,3.7168,3.7167,3.7166,0,0,3.7115,3.713,3.7143,3.7153,3.7167,3.7192,3.7232,3.7258,3.7276,3.7291,3.7324,3.7364,3.734,3.7353,3.7341,3.737,3.7442,3.7341,3.7341,3.7359,3.7519,3.7538,3.7552,3.7427,3.7429,3.7431,3.7518,0,3.72,3.727,3.7259,3.7326,3.7357,3.7329,3.7363,3.7375,3.7374,3.74,3.7398,3.7427,3.7393,3.7401,3.7429,3.7427,3.7474,3.7421,3.7457,3.7458,3.7454,3.7567,3.7587,3.7669,3.7529,3.7531,3.7532,0,3.7309,3.7331,3.7402,3.7412,3.7424,3.7456,3.7478,3.7504,3.7516,3.7513,3.7528,3.7511,3.755,3.7508,3.7561,3.7526,3.754,3.7541,3.7544,3.7546,3.7499,3.7572,3.7695,3.7707,3.755,3.7548,3.7547,0,3.7388,3.7435,3.7483,3.7493,3.7506,3.7529,3.7535,3.7545,3.7562,3.7581,3.7591,3.7615,3.7628,3.7646,3.7635,3.7606,3.7691,3.7648,3.7689,3.7689,3.7708,3.7707,3.7834,3.7717,3.7717,3.7717,3.7717,0,3.7485,3.753,3.7519,3.7549,3.7598,3.7584,3.7633,3.7635,3.7645,3.7674,3.7651,3.7678,3.7663,3.7689,3.7681,3.7726,3.7732,3.7731,3.7728,3.7733,3.7733,3.7741,3.7735,3.772,3.7719,3.7719,3.7718,0,3.7582,3.7577,3.7628,3.7636,3.7639,3.7675,3.7681,3.7709,3.7706,3.7744,3.7752,3.7747,3.7777,3.7769,3.78,3.7795,3.7853,3.7843,3.7849,3.7846,3.7888,3.7884,3.8025,3.8043,3.7915,3.7916,3.7917,0,3.7644,3.7677,3.769,3.7708,3.7717,3.7747,3.7764,3.7751,3.7769,3.7787,3.7813,3.7841,3.7862,3.7912,3.7911,3.7935,3.7925,3.7973,3.7929,3.7933,3.7926,3.7924,3.7927,3.7982,3.7983,3.7984,3.7985,0,3.7754,3.775,3.7776,3.7802,3.7823,3.7842,3.7858,3.7875,3.7863,3.7885,3.7916,3.7933,3.7967,3.7995,3.8017,3.8022,3.8002,3.8,3.801,3.8016,3.8018,3.8017,3.7873,3.7996,3.7995,3.7994,3.7994,3.7993,3.7835,3.7864,3.7878,3.7907,3.7919,3.7935,3.7962,3.7963,3.7989,3.8016,3.8007,3.8042,3.8054,3.8083,3.8091,3.8118,3.81,3.8115,3.8119,3.8123,3.8129,3.8014,3.8122,3.8122,3.8121,3.8121,3.8121,0,3.7944,3.7952,3.7979,3.8004,3.8028,3.8008,3.8025,3.8046,3.8078,3.8091,3.8114,3.815,3.8177,3.8179,3.8204,3.8225,3.8217,3.8233,3.8231,3.8232,3.8143,3.8132,3.8239,3.8239,3.8239,3.8239,3.8239,3.8239,3.8004,3.8052,3.805,3.8103,3.811,3.8146,3.8157,3.8172,3.8183,3.8224,3.8247,3.8249,3.8257,3.8283,3.8307,3.8307,3.8318,3.8337,3.8333,3.825,3.8238,3.8227,3.8216,3.8339,3.8339,3.842,3.842,3.8421]}]]